Time,TemperatureF,DewpointF,PressureIn,WindDirection,WindDirectionDegrees,WindSpeedMPH,WindSpeedGustMPH,Humidity,HourlyPrecipIn,Conditions,Clouds,dailyrainin,SolarRadiationWatts/m^2,SoftwareType,DateUTC
2013-05-14 00:01:00,49.0,37.0,-100.00,ESE,103,1.0,4.0,62,-99.99,,,0.00,0.000000,,2013-05-14 07:01:00,
2013-05-14 00:11:00,49.0,37.0,-100.00,ESE,103,1.0,4.0,62,-99.99,,,0.00,0.000000,,2013-05-14 07:11:00,
2013-05-14 00:41:00,47.0,37.0,-100.00,SSE,161,1.0,3.0,66,-99.99,,,0.00,0.000000,,2013-05-14 07:41:00,
2013-05-14 00:52:00,47.0,37.0,-100.00,SSE,161,1.0,3.0,66,-99.99,,,0.00,0.000000,,2013-05-14 07:52:00,
2013-05-14 01:02:00,47.0,37.0,-100.00,SSE,161,1.0,3.0,66,-99.99,,,0.00,0.000000,,2013-05-14 08:02:00,
2013-05-14 01:11:00,47.0,37.0,-100.00,SSE,161,1.0,3.0,66,-99.99,,,0.00,0.000000,,2013-05-14 08:11:00,
2013-05-14 01:41:00,46.0,36.0,-100.00,South,185,0.0,2.0,67,-99.99,,,0.00,0.000000,,2013-05-14 08:41:00,
2013-05-14 01:52:00,46.0,36.0,-100.00,South,185,0.0,2.0,67,-99.99,,,0.00,0.000000,,2013-05-14 08:52:00,
2013-05-14 02:01:00,46.0,36.0,-100.00,South,185,0.0,2.0,67,-99.99,,,0.00,0.000000,,2013-05-14 09:01:00,
2013-05-14 02:11:00,46.0,36.0,-100.00,South,185,0.0,2.0,67,-99.99,,,0.00,0.000000,,2013-05-14 09:11:00,
2013-05-14 02:44:00,44.0,36.0,-100.00,East,95,2.0,6.0,73,-99.99,,,0.00,0.000000,,2013-05-14 09:44:00,
2013-05-14 02:54:00,44.0,36.0,-100.00,East,95,2.0,6.0,73,-99.99,,,0.00,0.000000,,2013-05-14 09:54:00,
2013-05-14 03:04:00,44.0,36.0,-100.00,East,95,2.0,6.0,73,-99.99,,,0.00,0.000000,,2013-05-14 10:04:00,
2013-05-14 03:14:00,44.0,36.0,-100.00,East,95,2.0,6.0,73,-99.99,,,0.00,0.000000,,2013-05-14 10:14:00,
2013-05-14 03:42:00,43.0,36.0,-100.00,SSW,213,0.0,2.0,74,-99.99,,,0.00,0.000000,,2013-05-14 10:42:00,
2013-05-14 03:52:00,43.0,36.0,-100.00,SSW,213,0.0,2.0,74,-99.99,,,0.00,0.000000,,2013-05-14 10:52:00,
2013-05-14 04:02:00,43.0,36.0,-100.00,SSW,213,0.0,2.0,74,-99.99,,,0.00,0.000000,,2013-05-14 11:02:00,
2013-05-14 04:11:00,43.0,36.0,-100.00,SSW,213,0.0,2.0,74,-99.99,,,0.00,0.000000,,2013-05-14 11:11:00,
2013-05-14 04:43:00,39.0,33.0,-100.00,SW,217,1.0,2.0,80,-99.99,,,0.00,0.000000,,2013-05-14 11:43:00,
2013-05-14 04:53:00,39.0,33.0,-100.00,SW,217,1.0,2.0,80,-99.99,,,0.00,0.000000,,2013-05-14 11:53:00,
2013-05-14 05:02:00,39.0,33.0,-100.00,SW,217,1.0,2.0,80,-99.99,,,0.00,0.000000,,2013-05-14 12:02:00,
2013-05-14 05:12:00,39.0,33.0,-100.00,SW,217,1.0,2.0,80,-99.99,,,0.00,0.000000,,2013-05-14 12:12:00,
2013-05-14 05:42:00,38.0,33.0,-100.00,SSW,211,1.0,3.0,82,-99.99,,,0.00,0.120000,,2013-05-14 12:42:00,
2013-05-14 05:52:00,38.0,33.0,-100.00,SSW,211,1.0,3.0,82,-99.99,,,0.00,0.120000,,2013-05-14 12:52:00,
2013-05-14 06:01:00,38.0,33.0,-100.00,SSW,211,1.0,3.0,82,-99.99,,,0.00,0.120000,,2013-05-14 13:01:00,
2013-05-14 06:11:00,38.0,33.0,-100.00,SSW,211,1.0,3.0,82,-99.99,,,0.00,0.120000,,2013-05-14 13:11:00,
2013-05-14 06:41:00,37.0,33.0,-100.00,SW,216,1.0,3.0,87,-99.99,,,0.00,17.549999,,2013-05-14 13:41:00,
2013-05-14 06:52:00,37.0,33.0,-100.00,SW,216,1.0,3.0,87,-99.99,,,0.00,17.549999,,2013-05-14 13:52:00,
2013-05-14 07:01:00,37.0,33.0,-100.00,SW,216,1.0,3.0,87,-99.99,,,0.00,17.549999,,2013-05-14 14:01:00,
2013-05-14 07:11:00,37.0,33.0,-100.00,SW,216,1.0,3.0,87,-99.99,,,0.00,17.549999,,2013-05-14 14:11:00,
2013-05-14 07:41:00,41.0,34.0,-100.00,SSW,206,1.0,2.0,78,-99.99,,,0.00,206.759995,,2013-05-14 14:41:00,
2013-05-14 07:52:00,41.0,34.0,-100.00,SSW,206,1.0,2.0,78,-99.99,,,0.00,206.759995,,2013-05-14 14:52:00,
2013-05-14 08:01:00,41.0,34.0,-100.00,SSW,206,1.0,2.0,78,-99.99,,,0.00,206.759995,,2013-05-14 15:01:00,
2013-05-14 08:11:00,41.0,34.0,-100.00,SSW,206,1.0,2.0,78,-99.99,,,0.00,206.759995,,2013-05-14 15:11:00,
2013-05-14 08:43:00,49.0,36.0,-100.00,ESE,106,2.0,7.0,60,-99.99,,,0.00,402.589996,,2013-05-14 15:43:00,
2013-05-14 08:53:00,49.0,36.0,-100.00,ESE,106,2.0,7.0,60,-99.99,,,0.00,402.589996,,2013-05-14 15:53:00,
2013-05-14 09:02:00,49.0,36.0,-100.00,ESE,106,2.0,7.0,60,-99.99,,,0.00,402.589996,,2013-05-14 16:02:00,
2013-05-14 09:12:00,49.0,36.0,-100.00,ESE,106,2.0,7.0,60,-99.99,,,0.00,402.589996,,2013-05-14 16:12:00,
2013-05-14 09:43:00,50.0,36.0,-100.00,ENE,64,2.0,4.0,57,-99.99,,,0.00,528.099976,,2013-05-14 16:43:00,
2013-05-14 09:54:00,50.0,36.0,-100.00,ENE,64,2.0,4.0,57,-99.99,,,0.00,528.099976,,2013-05-14 16:54:00,
2013-05-14 10:03:00,50.0,36.0,-100.00,ENE,64,2.0,4.0,57,-99.99,,,0.00,528.099976,,2013-05-14 17:03:00,
2013-05-14 10:13:00,50.0,36.0,-100.00,ENE,64,2.0,4.0,57,-99.99,,,0.00,528.099976,,2013-05-14 17:13:00,
2013-05-14 10:43:00,53.0,36.0,-100.00,SSE,149,2.0,5.0,53,-99.99,,,0.00,741.950012,,2013-05-14 17:43:00,
2013-05-14 10:52:00,53.0,36.0,-100.00,SSE,149,2.0,5.0,53,-99.99,,,0.00,741.950012,,2013-05-14 17:52:00,
2013-05-14 11:02:00,53.0,36.0,-100.00,SSE,149,2.0,5.0,53,-99.99,,,0.00,741.950012,,2013-05-14 18:02:00,
2013-05-14 11:12:00,53.0,36.0,-100.00,SSE,149,2.0,5.0,53,-99.99,,,0.00,741.950012,,2013-05-14 18:12:00,
2013-05-14 11:42:00,56.0,35.0,-100.00,NNW,343,2.0,5.0,45,-99.99,,,0.00,891.409973,,2013-05-14 18:42:00,
2013-05-14 11:52:00,56.0,35.0,-100.00,NNW,343,2.0,5.0,45,-99.99,,,0.00,891.409973,,2013-05-14 18:52:00,
2013-05-14 12:01:00,56.0,35.0,-100.00,NNW,343,2.0,5.0,45,-99.99,,,0.00,891.409973,,2013-05-14 19:01:00,
2013-05-14 12:11:00,56.0,35.0,-100.00,NNW,343,2.0,5.0,45,-99.99,,,0.00,891.409973,,2013-05-14 19:11:00,
2013-05-14 12:42:00,59.0,34.0,-100.00,East,100,2.0,13.0,38,-99.99,,,0.00,946.030029,,2013-05-14 19:42:00,
2013-05-14 12:52:00,59.0,34.0,-100.00,East,100,2.0,13.0,38,-99.99,,,0.00,946.030029,,2013-05-14 19:52:00,
2013-05-14 13:02:00,59.0,34.0,-100.00,East,100,2.0,13.0,38,-99.99,,,0.00,946.030029,,2013-05-14 20:02:00,
2013-05-14 13:11:00,59.0,34.0,-100.00,East,100,2.0,13.0,38,-99.99,,,0.00,946.030029,,2013-05-14 20:11:00,
2013-05-14 13:44:00,61.0,34.0,-100.00,North,2,5.0,13.0,36,-99.99,,,0.00,1065.739990,,2013-05-14 20:44:00,
2013-05-14 13:52:00,61.0,34.0,-100.00,North,2,5.0,13.0,36,-99.99,,,0.00,1065.739990,,2013-05-14 20:52:00,
2013-05-14 14:03:00,61.0,34.0,-100.00,North,2,5.0,13.0,36,-99.99,,,0.00,1065.739990,,2013-05-14 21:03:00,
2013-05-14 14:12:00,61.0,34.0,-100.00,North,2,5.0,13.0,36,-99.99,,,0.00,1065.739990,,2013-05-14 21:12:00,
2013-05-14 15:45:00,63.0,36.0,-100.00,NNW,336,2.0,8.0,36,-99.99,,,0.00,330.410004,,2013-05-14 22:45:00,
2013-05-14 15:54:00,63.0,36.0,-100.00,NNW,336,2.0,8.0,36,-99.99,,,0.00,330.410004,,2013-05-14 22:54:00,
2013-05-14 16:03:00,63.0,36.0,-100.00,NNW,336,2.0,8.0,36,-99.99,,,0.00,330.410004,,2013-05-14 23:03:00,
2013-05-14 16:12:00,63.0,36.0,-100.00,NNW,336,2.0,8.0,36,-99.99,,,0.00,330.410004,,2013-05-14 23:12:00,
2013-05-14 16:44:00,65.0,34.0,-100.00,NE,40,4.0,9.0,31,-99.99,,,0.00,711.619995,,2013-05-14 23:44:00,
2013-05-14 16:52:00,65.0,34.0,-100.00,NE,40,4.0,9.0,31,-99.99,,,0.00,711.619995,,2013-05-14 23:52:00,
2013-05-14 17:01:00,65.0,34.0,-100.00,NE,40,4.0,9.0,31,-99.99,,,0.00,711.619995,,2013-05-15 00:01:00,
2013-05-14 17:11:00,65.0,34.0,-100.00,NE,40,4.0,9.0,31,-99.99,,,0.00,711.619995,,2013-05-15 00:11:00,
2013-05-14 18:42:00,64.0,36.0,-100.00,NW,324,4.0,9.0,34,-99.99,,,0.00,207.220001,,2013-05-15 01:42:00,
2013-05-14 18:52:00,64.0,36.0,-100.00,NW,324,4.0,9.0,34,-99.99,,,0.00,207.220001,,2013-05-15 01:52:00,
2013-05-14 19:01:00,64.0,36.0,-100.00,NW,324,4.0,9.0,34,-99.99,,,0.00,207.220001,,2013-05-15 02:01:00,
2013-05-14 19:11:00,64.0,36.0,-100.00,NW,324,4.0,9.0,34,-99.99,,,0.00,207.220001,,2013-05-15 02:11:00,
2013-05-14 19:42:00,62.0,37.0,-100.00,NNW,333,4.0,9.0,38,-99.99,,,0.00,61.709999,,2013-05-15 02:42:00,
2013-05-14 19:52:00,62.0,37.0,-100.00,NNW,333,4.0,9.0,38,-99.99,,,0.00,61.709999,,2013-05-15 02:52:00,
2013-05-14 20:01:00,62.0,37.0,-100.00,NNW,333,4.0,9.0,38,-99.99,,,0.00,61.709999,,2013-05-15 03:01:00,
2013-05-14 20:12:00,62.0,37.0,-100.00,NNW,333,4.0,9.0,38,-99.99,,,0.00,61.709999,,2013-05-15 03:12:00,
2013-05-14 20:44:00,59.0,38.0,-100.00,North,349,2.0,6.0,44,-99.99,,,0.00,19.059999,,2013-05-15 03:44:00,
2013-05-14 20:54:00,59.0,38.0,-100.00,North,349,2.0,6.0,44,-99.99,,,0.00,19.059999,,2013-05-15 03:54:00,
2013-05-14 21:03:00,59.0,38.0,-100.00,North,349,2.0,6.0,44,-99.99,,,0.00,19.059999,,2013-05-15 04:03:00,
2013-05-14 21:12:00,59.0,38.0,-100.00,North,349,2.0,6.0,44,-99.99,,,0.00,19.059999,,2013-05-15 04:12:00,
2013-05-14 21:42:00,57.0,39.0,-100.00,NNW,347,1.0,5.0,50,-99.99,,,0.00,0.000000,,2013-05-15 04:42:00,
2013-05-14 21:52:00,57.0,39.0,-100.00,NNW,347,1.0,5.0,50,-99.99,,,0.00,0.000000,,2013-05-15 04:52:00,
2013-05-14 22:02:00,57.0,39.0,-100.00,NNW,347,1.0,5.0,50,-99.99,,,0.00,0.000000,,2013-05-15 05:02:00,
2013-05-14 22:11:00,57.0,39.0,-100.00,NNW,347,1.0,5.0,50,-99.99,,,0.00,0.000000,,2013-05-15 05:11:00,
2013-05-14 22:42:00,54.0,39.0,-100.00,NW,326,2.0,6.0,55,-99.99,,,0.00,0.000000,,2013-05-15 05:42:00,
2013-05-14 22:52:00,54.0,39.0,-100.00,NW,326,2.0,6.0,55,-99.99,,,0.00,0.000000,,2013-05-15 05:52:00,
2013-05-14 23:02:00,54.0,39.0,-100.00,NW,326,2.0,6.0,55,-99.99,,,0.00,0.000000,,2013-05-15 06:02:00,
2013-05-14 23:11:00,54.0,39.0,-100.00,NW,326,2.0,6.0,55,-99.99,,,0.00,0.000000,,2013-05-15 06:11:00,
2013-05-14 23:32:00,53.0,39.0,-100.00,NW,315,1.0,4.0,58,-99.99,,,0.00,0.000000,,2013-05-15 06:32:00,
2013-05-14 23:41:00,53.0,39.0,-100.00,NW,315,1.0,4.0,58,-99.99,,,0.00,0.000000,,2013-05-15 06:41:00,
2013-05-14 23:52:00,53.0,39.0,-100.00,NW,315,1.0,4.0,58,-99.99,,,0.00,0.000000,,2013-05-15 06:52:00,